カタログに戻る

STARLINK-36623

運用中通信VLEO
NORAD 67644·PAYLOAD·🇺🇸 United States

打ち上げ Jan 30, 2026 から Cape Canaveral Space Force Station

Loading…

次のパス (今後24時間)

TLE

最新Source: CelesTrak SupGP

元期: Sep 14, 2026, 23:13 UTC

1 67644C 26020AD  26257.96784722 -.00052840  00000+0 -19139-2 0  2576
2 67644  43.0025 150.5455 0001196 271.7051 123.2942 15.27604736    13

AllMySatでSTARLINK-36623をリアルタイム追跡

Download on the App Store